EW0600 Weather Reports


Display with metric or nautical units.
time (UTC)temp
F
wind
direction
speed
MPH
gust
MPH
rain 1hr
in
rain 24hr
in
rain mn
in
humidity
%
barometer
mb
20260906182015 74 117 6.0 14.0 0.00 0.00 0.00 87 1014.0
20260906181603 74 120 7.0 11.0 0.00 0.00 0.00 87 1014.1
20260906181011 74 143 6.0 16.0 0.00 0.00 0.00 88 1014.0
20260906180003 73 130 8.0 17.0 0.00 0.00 0.00 87 1014.1
20260906175949 74 75 8.0 16.0 0.00 0.00 0.00 87 1014.1
20260906175001 74 119 8.0 15.0 0.00 0.00 0.00 87 1014.2
20260906174608 73 126 9.0 16.0 0.00 0.00 0.00 87 1014.1
20260906173002 73 96 5.0 14.0 0.00 0.00 0.00 87 1014.1
20260906172817 74 190 7.0 14.0 0.00 0.00 0.00 87 1014.1
20260906171608 73 117 7.0 15.0 0.00 0.00 0.00 88 1014.4
20260906170004 73 126 10.0 14.0 0.00 0.00 0.00 88 1014.6
20260906164502 72 94 7.0 10.0 0.00 0.00 0.00 89 1014.9
20260906164416 73 107 5.0 10.0 0.00 0.00 0.00 89 1014.9
20260906163404 72 122 7.0 12.0 0.00 0.00 0.00 89 1014.8
20260906163102 72 94 9.0 13.0 0.00 0.00 0.00 89 1014.8
20260906162352 72 119 5.0 11.0 0.00 0.00 0.00 89 1014.6
20260906161503 71 105 5.0 14.0 0.00 0.00 0.00 90 1014.9
20260906160217 72 105 9.0 16.0 0.00 0.00 0.00 90 1014.8
20260906160103 71 79 8.0 17.0 0.00 0.00 0.00 90 1014.9
20260906155203 72 131 8.0 14.0 0.00 0.00 0.00 90 1014.7
20260906154505 71 155 9.0 14.0 0.00 0.00 0.00 91 1014.7
20260906154129 71 92 8.0 16.0 0.00 0.00 0.00 91 1014.6
20260906153105 71 114 8.0 16.0 0.00 0.00 0.00 91 1014.6
20260906152127 71 105 8.0 14.0 0.00 0.00 0.00 92 1014.8
20260906150015 70 91 6.0 14.0 0.00 0.00 0.00 94 1015.0
20260906150002 69 80 7.0 12.0 0.00 0.00 0.00 94 1015.0
20260906144605 68 49 8.0 15.0 0.00 0.00 0.00 94 1014.9
20260906143918 69 90 7.0 13.0 0.00 0.00 0.00 94 1014.8
20260906143002 68 96 8.0 12.0 0.00 0.00 0.00 94 1014.8
20260906142901 69 101 7.0 11.0 0.00 0.00 0.00 94 1014.7
20260906141905 69 143 7.0 16.0 0.00 0.00 0.00 95 1014.7
20260906141603 68 124 7.0 17.0 0.00 0.00 0.00 94 1014.7
20260906140002 68 103 10.0 16.0 0.00 0.00 0.00 93 1014.8
20260906135730 69 136 8.0 14.0 0.00 0.00 0.00 93 1014.7
20260906134709 70 125 6.0 12.0 0.00 0.00 0.00 93 1014.6
20260906134605 69 117 8.0 13.0 0.00 0.00 0.00 93 1014.6
20260906133644 70 119 6.0 11.0 0.00 0.00 0.00 93 1014.5
20260906133006 69 147 7.0 10.0 0.00 0.00 0.00 93 1014.5
20260906131605 69 110 5.0 10.0 0.00 0.00 0.00 94 1014.3
20260906131517 69 73 4.0 7.0 0.00 0.00 0.00 94 1014.2
20260906130537 69 94 4.0 7.0 0.00 0.00 0.00 94 1014.0
20260906130006 68 60 5.0 8.0 0.00 0.00 0.00 95 1014.1
20260906125551 68 70 3.0 7.0 0.00 0.00 0.00 95 1014.1
20260906124602 67 72 3.0 7.0 0.00 0.00 0.00 95 1014.1
20260906124541 67 92 2.0 6.0 0.00 0.00 0.00 95 1014.0
20260906123522 67 104 2.0 4.0 0.00 0.00 0.00 95 1013.9
20260906123003 66 106 3.0 5.0 0.00 0.00 0.00 95 1013.9
20260906122544 67 93 2.0 3.0 0.00 0.00 0.00 96 1013.8
20260906121607 66 84 3.0 4.0 0.00 0.00 0.00 96 1014.0
20260906121548 67 87 1.0 3.0 0.00 0.00 0.00 96 1013.9
20260906120513 66 91 1.0 1.0 0.00 0.00 0.00 96 1013.9
20260906120140 66 98 1.0 3.0 0.00 0.00 0.00 96 1014.0
20260906115531 66 98 1.0 3.0 0.00 0.00 0.00 95 1013.8
20260906114517 67 104 2.0 3.0 0.00 0.00 0.00 96 1013.8
20260906114507 66 105 2.0 4.0 0.00 0.00 0.00 96 1013.7
20260906113458 67 102 2.0 3.0 0.00 0.00 0.00 96 1013.7
20260906113102 66 109 2.0 4.0 0.00 0.00 0.00 96 1013.8
20260906112458 67 103 2.0 3.0 0.00 0.00 0.00 96 1013.7
20260906111515 67 80 2.0 6.0 0.00 0.00 0.00 95 1013.6
20260906111503 66 89 2.0 6.0 0.00 0.00 0.00 95 1013.6
20260906110501 67 101 3.0 6.0 0.00 0.00 0.00 95 1013.6
20260906104502 66 110 3.0 5.0 0.00 0.00 0.00 95 1013.5
20260906104321 67 103 2.0 3.0 0.00 0.00 0.00 95 1013.4
20260906103325 67 108 1.0 4.0 0.00 0.00 0.00 94 1013.5
20260906103103 67 98 1.0 5.0 0.00 0.00 0.00 95 1013.5
20260906102253 68 107 2.0 4.0 0.00 0.00 0.00 95 1013.6
20260906101502 67 99 3.0 6.0 0.00 0.00 0.00 95 1013.5
20260906100125 68 96 2.0 4.0 0.00 0.00 0.00 95 1013.4
20260906100104 67 99 3.0 5.0 0.00 0.00 0.00 95 1013.4
20260906095123 67 112 1.0 3.0 0.00 0.00 0.00 95 1013.2
20260906094502 67 81 1.0 4.0 0.00 0.00 0.00 95 1013.2
20260906093105 68 77 2.0 3.0 0.00 0.00 0.00 94 1013.0
20260906092953 68 79 1.0 5.0 0.00 0.00 0.00 94 1013.0
20260906091943 68 79 2.0 5.0 0.00 0.00 0.00 94 1012.7
20260906091506 68 84 3.0 6.0 0.00 0.00 0.00 94 1012.7
20260906090922 68 90 2.0 4.0 0.00 0.00 0.00 94 1012.7
20260906085931 68 93 3.0 8.0 0.00 0.00 0.00 93 1012.6
20260906084858 69 105 5.0 8.0 0.00 0.00 0.00 93 1012.6
20260906084502 69 107 6.0 9.0 0.00 0.00 0.00 93 1012.6
20260906083902 69 105 5.0 8.0 0.00 0.00 0.00 93 1012.5
20260906083101 69 96 5.0 8.0 0.00 0.00 0.00 93 1012.5
20260906082850 69 105 4.0 9.0 0.00 0.00 0.00 93 1012.4
20260906081901 70 95 5.0 9.0 0.00 0.00 0.00 93 1012.3
20260906081502 69 97 6.0 10.0 0.00 0.00 0.00 92 1012.4
20260906080854 70 98 4.0 8.0 0.00 0.00 0.00 93 1012.3
20260906075859 70 96 4.0 8.0 0.00 0.00 0.00 93 1012.3
20260906074503 69 92 3.0 8.0 0.00 0.00 0.00 93 1012.5
20260906073750 70 106 5.0 10.0 0.00 0.00 0.00 93 1012.4
20260906073102 69 70 6.0 11.0 0.00 0.00 0.00 93 1012.5
20260906071502 70 93 5.0 7.0 0.00 0.00 0.00 93 1012.6
20260906070433 70 98 3.0 5.0 0.00 0.00 0.00 93 1012.7
20260906065443 70 100 3.0 5.0 0.00 0.00 0.00 92 1012.9
20260906064503 70 100 4.0 5.0 0.00 0.00 0.00 93 1013.2
20260906064435 70 105 3.0 4.0 0.00 0.00 0.00 93 1013.1
20260906063422 70 103 3.0 6.0 0.00 0.00 0.00 92 1012.9
20260906063103 70 95 3.0 7.0 0.00 0.00 0.00 92 1013.0
20260906062354 70 108 3.0 6.0 0.00 0.00 0.00 93 1012.9
20260906061506 70 102 3.0 7.0 0.00 0.00 0.00 92 1013.0
20260906061319 71 80 3.0 7.0 0.00 0.00 0.00 92 1012.9
20260906060325 71 101 4.0 7.0 0.00 0.00 0.00 92 1012.9
20260906060105 71 107 5.0 8.0 0.00 0.00 0.00 92 1013.0
20260906054503 71 104 4.0 6.0 0.00 0.00 0.00 92 1013.0
20260906054139 71 110 2.0 4.0 0.00 0.00 0.00 92 1013.0
20260906053138 71 100 1.0 3.0 0.00 0.00 0.00 92 1013.0
20260906053104 70 100 2.0 3.0 0.00 0.00 0.00 92 1013.1
20260906052127 71 101 1.0 3.0 0.00 0.00 0.00 92 1013.1
20260906051503 70 101 2.0 4.0 0.00 0.00 0.00 92 1013.0
20260906051138 71 76 1.0 2.0 0.00 0.00 0.00 92 1013.1
20260906050139 71 76 2.0 3.0 0.00 0.00 0.00 92 1013.2
20260906050107 71 76 2.0 4.0 0.00 0.00 0.00 92 1013.2
20260906045114 71 76 2.0 4.0 0.00 0.00 0.00 92 1013.4
20260906044503 70 76 3.0 5.0 0.00 0.00 0.00 92 1013.4
20260906044053 71 83 2.0 4.0 0.00 0.00 0.00 92 1013.3
20260906043102 70 81 2.0 4.0 0.00 0.00 0.00 93 1013.4
20260906043048 70 81 1.0 3.0 0.00 0.00 0.00 93 1013.4
20260906042056 71 80 1.0 2.0 0.00 0.00 0.00 92 1013.3
20260906041503 70 78 1.0 4.0 0.00 0.00 0.00 92 1013.4
20260906040114 71 75 3.0 5.0 0.00 0.00 0.00 92 1013.4
20260906034502 71 83 2.0 3.0 0.00 0.00 0.00 92 1013.2
20260906033615 71 83 1.0 1.0 0.00 0.00 0.00 92 1013.2
20260906033126 71 83 1.0 2.0 0.00 0.00 0.00 92 1013.2
20260906032627 72 83 0.0 1.0 0.00 0.00 0.00 91 1013.1
20260906031638 72 83 1.0 2.0 0.00 0.00 0.00 92 1013.2
20260906031506 71 83 1.0 3.0 0.00 0.00 0.00 92 1013.3
20260906025544 73 82 1.0 2.0 0.00 0.00 0.00 91 1013.3
20260906024535 73 82 2.0 3.0 0.00 0.00 0.00 90 1013.3
20260906024506 73 82 2.0 4.0 0.00 0.00 0.00 90 1013.4
20260906023541 73 89 1.0 3.0 0.00 0.00 0.00 90 1013.5
20260906023104 73 89 2.0 4.0 0.00 0.00 0.00 90 1013.3
20260906022548 73 94 2.0 3.0 0.00 0.00 0.00 90 1013.0
20260906021503 73 105 1.0 2.0 0.00 0.00 0.00 90 1013.0
20260906020443 73 105 1.0 4.0 0.00 0.00 0.00 90 1012.7
20260906015406 74 103 2.0 4.0 0.00 0.00 0.00 89 1012.1
20260906014505 74 107 2.0 5.0 0.00 0.00 0.00 89 1012.1
20260906013003 74 108 3.0 6.0 0.00 0.00 0.00 88 1011.8
20260906011607 75 112 5.0 9.0 0.00 0.00 0.00 87 1011.5
20260906011003 75 138 3.0 7.0 0.00 0.00 0.00 87 1011.4
20260906010003 75 111 4.0 9.0 0.00 0.00 0.00 86 1011.2
20260906005935 76 101 4.0 7.0 0.00 0.00 0.00 86 1011.2
20260906004605 76 132 3.0 8.0 0.00 0.00 0.00 85 1011.3
20260906003752 77 165 3.0 7.0 0.00 0.00 0.00 84 1011.1
20260906003003 77 117 4.0 6.0 0.00 0.00 0.00 84 1011.1
20260906002720 78 119 3.0 7.0 0.00 0.00 0.00 83 1011.1
20260906001648 78 109 4.0 7.0 0.00 0.00 0.00 83 1011.0
20260906001602 78 100 5.0 8.0 0.00 0.00 0.00 82 1011.0
20260906000629 78 99 3.0 7.0 0.00 0.00 0.00 83 1010.9
20260906000004 78 96 3.0 7.0 0.00 0.00 0.00 82 1010.9
20260905235631 79 117 3.0 7.0 0.00 0.00 0.00 82 1010.9
20260905234607 79 129 6.0 12.0 0.00 0.00 0.00 80 1010.8
20260905234601 79 110 6.0 11.0 0.00 0.00 0.00 80 1010.7
20260905233530 80 103 6.0 13.0 0.00 0.00 0.00 79 1010.8
20260905233001 80 70 7.0 14.0 0.00 0.00 0.00 78 1010.7
20260905231603 80 88 7.0 14.0 0.00 0.00 0.00 77 1010.7
20260905231307 81 108 8.0 15.0 0.00 0.00 0.00 76 1010.6
20260905230315 81 74 8.0 15.0 0.00 0.00 0.00 77 1010.4
20260905230004 80 89 9.0 13.0 0.00 0.00 0.00 77 1010.4
20260905225301 81 96 7.0 14.0 0.00 0.00 0.00 77 1010.3
20260905224610 80 87 8.0 15.0 0.00 0.00 0.00 77 1010.3
20260905224323 81 65 7.0 16.0 0.00 0.00 0.00 76 1010.2
20260905223323 81 55 8.0 16.0 0.00 0.00 0.00 78 1010.1
20260905223002 80 62 8.0 16.0 0.00 0.00 0.00 77 1010.1
20260905222252 81 63 9.0 17.0 0.00 0.00 0.00 77 1009.9
20260905221505 80 102 10.0 18.0 0.00 0.00 0.00 77 1009.8
20260905221308 81 65 9.0 17.0 0.00 0.00 0.00 77 1009.8
20260905220312 81 72 7.0 14.0 0.00 0.00 0.00 78 1009.9
20260905215301 81 110 6.0 14.0 0.00 0.00 0.00 79 1010.1
20260905214502 80 77 7.0 15.0 0.00 0.00 0.00 79 1010.4
20260905214252 80 101 7.0 14.0 0.00 0.00 0.00 80 1010.3
20260905213309 80 75 5.0 10.0 0.00 0.00 0.00 80 1010.4
20260905213110 80 80 5.0 11.0 0.00 0.00 0.00 80 1010.5
20260905212241 80 79 5.0 10.0 0.00 0.00 0.00 80 1010.5
20260905211508 80 79 4.0 10.0 0.00 0.00 0.00 80 1010.6
20260905211243 80 63 5.0 9.0 0.00 0.00 0.00 81 1010.5
20260905210229 80 82 5.0 10.0 0.00 0.00 0.00 80 1010.5
20260905210107 80 65 5.0 11.0 0.00 0.00 0.00 80 1010.5
20260905204504 80 102 7.0 14.0 0.00 0.00 0.00 79 1010.6
20260905204102 81 39 8.0 16.0 0.00 0.00 0.00 79 1010.6
20260905203126 80 73 10.0 16.0 0.00 0.00 0.00 79 1010.6
20260905203124 80 68 10.0 15.0 0.00 0.00 0.00 79 1010.6
20260905202136 80 76 9.0 18.0 0.00 0.00 0.00 80 1010.6
20260905201609 80 57 9.0 19.0 0.00 0.00 0.00 80 1010.8
20260905201125 80 56 11.0 18.0 0.00 0.00 0.00 79 1010.8
20260905200120 80 57 12.0 19.0 0.00 0.00 0.00 80 1011.1
20260905200118 80 24 10.0 18.0 0.00 0.00 0.00 80 1011.1
20260905194502 79 83 7.0 15.0 0.00 0.00 0.00 84 1011.6
20260905193923 80 103 9.0 15.0 0.00 0.00 0.00 84 1011.6
20260905193103 78 72 8.0 16.0 0.00 0.00 0.00 86 1011.6
20260905192924 79 79 8.0 16.0 0.00 0.00 0.00 86 1011.6
20260905191942 78 63 11.0 16.0 0.00 0.00 0.00 86 1011.5
20260905191502 78 71 13.0 17.0 0.00 0.00 0.00 85 1011.6
20260905190906 78 66 9.0 15.0 0.00 0.00 0.00 86 1011.7
20260905190106 77 76 8.0 12.0 0.00 0.00 0.00 88 1012.1
20260905184734 76 112 3.0 7.0 0.00 0.00 0.00 88 1012.4
20260905184504 76 78 4.0 8.0 0.00 0.00 0.00 88 1012.4
20260905183103 76 81 2.0 8.0 0.00 0.00 0.00 89 1012.5